SCP
0 0 0 0 0 0 0 0 0 0 0 0 0 0 0 0 0 0 0 0 0 0
0 0 0 0 0 0 0 0 0 0 0 0 0 0 0 0 0 0 0 0 0 0
0 0 0 0 0 0 0 0 0 0 0 0 0 0 0 0 0 0 0 0 0 0
0 0 0 0 0 0 0 0 0 0 0 0 0 0 0 0 0 0 0 0 0 0
0 0 0 0 0 0 0 0 0 0 0 0 0 0 0 0 0 0 0 0 0 0
0 0 0 0 0 0 0 0 0 0 0 0 0 0 0 0 0 0 0 0 0 0
0 0 0 0 0 0 0 0 0 0 0 0 0 0 0 0 0 0 0 0 0 0
0 0 0 0 0 0 0 0 0 0 0 0 0 0 0 0 0 0 0 0 0 0
0 0 0 0 0 0 0 0 0 0 0 0 0 0 0 0 0 0 0 0 0 0
0 0 0 0 0 0 0 0 0 0 0 0 0 0 0 0 0 0 0 0 0 0
0 0 0 0 0 0 0 0 0 0 0 0 0 0 0 0 0 0 0 0 0 0
0 0 0 0 0 0 0 0 0 0 0 0 0 0 0 0 0 0 0 0 0 0
0 0 0 0 0 0 0 0 0 0 0 0 0 0 0 0 0 0 0 0 0 0
0 0 0 0 0 0 0 0 0 0 0 0 0 0 0 0 0 0 0 0 0 0
Wind_Speed_500mb
98 100 102 98 96 94 89 86 84 76 73 71 72 71 69 70 68 66 64 62 60 59
98 101 104 103 100 98 91 91 86 80 74 68 70 71 71 70 69 66 62 57 55 53
101 103 103 103 101 99 95 92 89 85 77 68 69 69 69 70 70 66 60 55 53 49
92 99 98 100 98 98 96 93 91 88 81 70 66 70 71 72 72 66 60 55 50 46
83 93 97 98 96 96 97 93 89 86 82 74 69 71 73 74 71 65 60 54 48 45
81 94 98 95 90 93 94 91 89 86 84 78 73 76 76 75 70 64 55 48 47 50
82 90 92 89 86 87 90 89 88 87 82 78 77 76 75 70 63 56 52 53 52 54
69 81 83 84 82 82 85 87 86 83 82 79 77 76 68 65 63 57 56 55 52 54
59 63 77 83 79 80 84 85 83 81 78 75 73 67 65 61 61 59 57 57 55 51
57 63 67 63 71 76 81 79 79 75 71 68 65 63 61 61 58 57 55 52 52 46
59 62 64 65 65 72 79 78 76 72 65 63 61 60 60 58 55 51 47 46 43 41
66 66 67 68 69 73 76 73 68 67 63 60 59 60 59 58 56 53 47 46 42 41
75 70 69 69 70 71 69 66 64 64 62 57 59 63 62 60 54 54 51 48 46 40
79 72 70 67 64 66 67 67 65 64 61 59 59 55 54 55 53 51 53 51 52 48
Wind_Direction_500mb
246 247 248 247 247 247 248 251 254 253 251 250 250 248 248 250 253 253 251 250 251 255
246 247 249 250 248 248 248 250 253 254 254 250 248 246 244 246 248 249 251 252 252 253
249 249 250 249 248 248 248 246 250 252 252 247 243 240 238 240 244 247 248 249 248 248
252 251 251 250 251 251 249 246 246 248 248 246 239 235 233 236 241 243 245 246 245 246
255 253 247 247 250 249 246 243 243 244 244 244 240 233 233 234 239 244 245 244 242 240
250 247 249 249 248 245 242 241 240 239 241 240 236 232 231 235 239 242 244 243 246 248
243 245 246 249 248 246 243 241 239 238 238 237 235 232 232 235 237 237 240 245 243 250
248 243 246 246 246 244 243 239 237 235 235 234 231 232 233 233 234 234 239 242 236 242
263 252 243 243 244 241 239 236 233 230 232 234 231 230 230 231 232 233 233 235 235 242
270 258 250 247 242 241 238 235 233 232 231 231 231 230 226 226 227 227 227 228 233 230
271 264 253 243 240 234 233 231 230 230 227 227 227 224 223 222 221 222 221 226 215 217
268 261 254 246 237 230 229 231 230 228 225 219 223 225 220 217 213 214 211 211 214 208
266 258 251 243 236 233 231 227 221 220 222 221 219 221 216 214 215 209 208 204 200 196
264 255 249 239 229 225 222 220 219 219 220 218 216 215 215 209 212 211 203 197 184 189
Wind_Speed_850mb
98 100 102 98 96 94 89 86 84 76 73 71 72 71 69 70 68 66 64 62 60 59
98 101 104 103 100 98 91 91 86 80 74 68 70 71 71 70 69 66 62 57 55 53
101 103 103 103 101 99 95 92 89 85 77 68 69 69 69 70 70 66 60 55 53 49
92 99 98 100 98 98 96 93 91 88 81 70 66 70 71 72 72 66 60 55 50 46
83 93 97 98 96 96 97 93 89 86 82 74 69 71 73 74 71 65 60 54 48 45
81 94 98 95 90 93 94 91 89 86 84 78 73 76 76 75 70 64 55 48 47 50
82 90 92 89 86 87 90 89 88 87 82 78 77 76 75 70 63 56 52 53 52 54
69 81 83 84 82 82 85 87 86 83 82 79 77 76 68 65 63 57 56 55 52 54
59 63 77 83 79 80 84 85 83 81 78 75 73 67 65 61 61 59 57 57 55 51
57 63 67 63 71 76 81 79 79 75 71 68 65 63 61 61 58 57 55 52 52 46
59 62 64 65 65 72 79 78 76 72 65 63 61 60 60 58 55 51 47 46 43 41
66 66 67 68 69 73 76 73 68 67 63 60 59 60 59 58 56 53 47 46 42 41
75 70 69 69 70 71 69 66 64 64 62 57 59 63 62 60 54 54 51 48 46 40
79 72 70 67 64 66 67 67 65 64 61 59 59 55 54 55 53 51 53 51 52 48
Wind_Direction_850mb
246 247 248 247 247 247 248 251 254 253 251 250 250 248 248 250 253 253 251 250 251 255
246 247 249 250 248 248 248 250 253 254 254 250 248 246 244 246 248 249 251 252 252 253
249 249 250 249 248 248 248 246 250 252 252 247 243 240 238 240 244 247 248 249 248 248
252 251 251 250 251 251 249 246 246 248 248 246 239 235 233 236 241 243 245 246 245 246
255 253 247 247 250 249 246 243 243 244 244 244 240 233 233 234 239 244 245 244 242 240
250 247 249 249 248 245 242 241 240 239 241 240 236 232 231 235 239 242 244 243 246 248
243 245 246 249 248 246 243 241 239 238 238 237 235 232 232 235 237 237 240 245 243 250
248 243 246 246 246 244 243 239 237 235 235 234 231 232 233 233 234 234 239 242 236 242
263 252 243 243 244 241 239 236 233 230 232 234 231 230 230 231 232 233 233 235 235 242
270 258 250 247 242 241 238 235 233 232 231 231 231 230 226 226 227 227 227 228 233 230
271 264 253 243 240 234 233 231 230 230 227 227 227 224 223 222 221 222 221 226 215 217
268 261 254 246 237 230 229 231 230 228 225 219 223 225 220 217 213 214 211 211 214 208
266 258 251 243 236 233 231 227 221 220 222 221 219 221 216 214 215 209 208 204 200 196
264 255 249 239 229 225 222 220 219 219 220 218 216 215 215 209 212 211 203 197 184 189